This demonstration page uses our WeatherBlox Daily Observations layout. Learn more.

Left ArrowRight Arrow

34.02893, -84.19858

Hourly Observations for March 4, 2022

Temp ( °F °C ) Dew Point ( °F °C ) Humidity (%) Winds ( mph kmh ) Pressure ( in mb ) Visibility ( mi km ) Precip ( " mm )
12:53 am 00:53 Clear 51 10.6 34 1.1 52 52 Calm 30.18 1022 10 16 0.00 0.00
1:53 am 01:53 Clear 51 10.6 35 1.7 54 54 Calm 30.17 1022 10 16 0.00 0.00
2:53 am 02:53 Clear 44 6.7 37 2.8 76 76 Calm 30.18 1022 10 16 0.00 0.00
3:53 am 03:53 Clear 45 7.2 36 2.2 71 71 Calm 30.19 1022 10 16 0.00 0.00
4:53 am 04:53 Clear 46 7.8 36 2.2 68 68 Calm 30.21 1023 10 16 0.00 0.00
5:53 am 05:53 Clear 45 7.2 37 2.8 74 74 Calm 30.23 1024 10 16 0.00 0.00
6:53 am 06:53 Clear 43 6.1 37 2.8 80 80 Calm 30.27 1025 10 16 0.00 0.00
7:53 am 07:53 Sunny 54 12.2 37 2.8 53 53 ENE 5 7 30.29 1026 10 16 0.00 0.00
8:53 am 08:53 Sunny 61 16.1 38 3.3 43 43 VRB 5 7 30.32 1027 10 16 0.00 0.00
9:53 am 09:53 Sunny 63 17.2 39 3.9 41 41 ENE 9 15 30.33 1027 10 16 0.00 0.00
10:53 am 10:53 Sunny 66 18.9 39 3.9 37 37 ENE 9 15 30.34 1027 10 16 0.00 0.00
11:53 am 11:53 Sunny 68 20 40 4.4 36 36 E 12 19 30.33 1027 10 16 0.00 0.00
12:53 pm 12:53 Sunny 71 21.7 42 5.6 35 35 VRB 3 6 30.31 1026 10 16 0.00 0.00
1:53 pm 13:53 Sunny 73 22.8 42 5.6 33 33 E 7 11 30.28 1025 10 16 0.00 0.00
2:53 pm 14:53 Sunny 74 23.3 41 5 31 31 VRB 5 7 30.27 1025 10 16 0.00 0.00
3:53 pm 15:53 Sunny 75 23.9 44 6.7 33 33 VRB 5 7 30.25 1024 10 16 0.00 0.00
4:53 pm 16:53 Sunny 74 23.3 42 5.6 32 32 VRB 6 9 30.25 1024 10 16 0.00 0.00
5:53 pm 17:53 Sunny 71 21.7 44 6.7 38 38 undefined N/A 30.26 1025 10 16 0.00 0.00
6:53 pm 18:53 Clear 67 19.4 45 7.2 45 45 E 3 6 30.27 1025 9 14 0.00 0.00
7:53 pm 19:53 Clear 65 18.3 45 7.2 49 49 VRB 3 6 30.28 1025 10 16 0.00 0.00
8:53 pm 20:53 Clear 63 17.2 44 6.7 50 50 E 5 7 30.29 1026 10 16 0.00 0.00
9:53 pm 21:53 Clear 62 16.7 42 5.6 48 48 E 7 11 30.29 1026 10 16 0.00 0.00
10:53 pm 22:53 Clear 60 15.6 42 5.6 52 52 E 3 6 30.30 1026 10 16 0.00 0.00
11:53 pm 23:53 Clear 59 15 41 5 51 51 VRB 5 7 30.29 1026 10 16 0.00 0.00

Powered by AerisWeather